Weather History for Sandberg, CA

Change the Weather History Date:

Thursday, October 17, 2013

  Actual Average Record
Temperature  
Mean Temperature 63 °F 59 °F  
Max Temperature 71 °F 67 °F 85 °F (1958)
Min Temperature 55 °F 51 °F 29 °F (1971)
Degree Days  
Heating Degree Days 2 7  
Month to date heating degree days 103 96  
Since 1 July heating degree days 150 174  
Cooling Degree Days 0 1  
Month to date cooling degree days 9 39  
Year to date cooling degree days 1519 985  
Growing Degree Days 13 (Base 50)    
Moisture  
Dew Point 24 °F    
Average Humidity 25    
Maximum Humidity 35    
Minimum Humidity 15    
Precipitation  
Precipitation 0.00 in 0.02 in 2.50 in (2005)
Month to date precipitation 0.20 0.26  
Year to date precipitation 3.19 8.96  
Since 1 July precipitation 0.28 0.48  
Sea Level Pressure  
Sea Level Pressure 30.01 in    
Wind  
Wind Speed 15 mph (NNW)    
Max Wind Speed 24 mph    
Max Gust Speed 29 mph    
Visibility 10 miles    
Events      
T = Trace of Precipitation, MM = Missing Value Source: NWS Daily Summary

Daily Weather History Graph

Daily Weather History Graph

Search for Another Location

Airport:

Trip Planner

Search our weather history database for the weather conditions in past years. The results will help you decide how hot, cold, wet, or windy it might be!

Date:

Astronomy

Oct. 17, 2013 Rise Set
Actual Time 7:02 AM PDT 6:17 PM PDT
Civil Twilight 6:37 AM PDT 6:42 PM PDT
Nautical Twilight 6:07 AM PDT 7:12 PM PDT
Astronomical Twilight 5:38 AM PDT 7:41 PM PDT
Moon 5:33 PM PDT (10/17) 5:42 AM PDT (10/17)
Length of Visible Light 12h 05m
Length of Day
11h 14m
Waxing Gibbous, 98% of the Moon is Illuminated
Oct 17
Waxing Gibbous
Oct 18
Full
Oct 26
Last Quarter
Nov 3
New
Nov 9
First Quarter

Hourly Weather History & Observations

Time (PDT) Temp. Dew Point Humidity Pressure Visibility Wind Dir Wind Speed Gust Speed Precip Events Conditions
12:48 AM 57.0 °F 19.9 °F 24% 30.05 in 10.0 mi NNW 13.8 mph - N/A   Clear
1:48 AM 57.0 °F 19.0 °F 23% 30.03 in 10.0 mi NNW 13.8 mph - N/A   Clear
2:48 AM 57.0 °F 19.0 °F 23% 30.03 in 10.0 mi NNW 13.8 mph - N/A   Clear
3:48 AM 55.9 °F 23.0 °F 28% 30.03 in 10.0 mi NNW 17.3 mph - N/A   Clear
4:48 AM 55.9 °F 25.0 °F 30% 30.02 in 10.0 mi North 16.1 mph 26.5 mph N/A   Clear
5:48 AM 55.0 °F 27.0 °F 34% 30.04 in 10.0 mi North 15.0 mph 20.7 mph N/A   Clear
6:48 AM 55.9 °F 28.0 °F 34% 30.05 in 10.0 mi North 17.3 mph 24.2 mph N/A   Clear
7:48 AM 57.0 °F 27.0 °F 32% 30.06 in 10.0 mi North 15.0 mph 21.9 mph N/A   Clear
8:48 AM 60.1 °F 28.0 °F 30% 30.06 in 10.0 mi North 12.7 mph - N/A   Clear
9:48 AM 63.0 °F 25.0 °F 24% 30.06 in 10.0 mi North 9.2 mph - N/A   Clear
10:48 AM 66.0 °F 24.1 °F 20% 30.04 in 10.0 mi North 9.2 mph 18.4 mph N/A   Clear
11:48 AM 68.0 °F 23.0 °F 18% 30.04 in 10.0 mi NNW 15.0 mph 20.7 mph N/A   Clear
12:48 PM 70.0 °F 21.0 °F 16% 30.01 in 10.0 mi North 15.0 mph 19.6 mph N/A   Clear
1:48 PM 70.0 °F 21.0 °F 16% 29.98 in 10.0 mi NNW 17.3 mph 20.7 mph N/A   Clear
2:48 PM 69.1 °F 19.9 °F 15% 29.97 in 10.0 mi NNW 19.6 mph - N/A   Clear
3:48 PM 66.9 °F 25.0 °F 21% 29.97 in 10.0 mi NNW 17.3 mph 24.2 mph N/A   Clear
4:48 PM 64.0 °F 28.0 °F 26% 29.96 in 10.0 mi NNW 21.9 mph - N/A   Clear
5:48 PM 61.0 °F 28.0 °F 29% 29.97 in 10.0 mi North 18.4 mph - N/A   Clear
6:48 PM 57.9 °F 28.0 °F 32% 29.97 in 10.0 mi North 20.7 mph - N/A   Clear
7:48 PM 57.0 °F 28.0 °F 33% 29.99 in 10.0 mi NNW 20.7 mph - N/A   Clear
8:48 PM 57.0 °F 26.1 °F 30% 29.99 in 10.0 mi NNW 17.3 mph - N/A   Clear
9:48 PM 55.9 °F 25.0 °F 30% 29.99 in 10.0 mi NNW 15.0 mph - N/A   Clear
10:48 PM 57.0 °F 19.9 °F 24% 29.98 in 10.0 mi Variable 3.5 mph - N/A   Clear
11:48 PM 59.0 °F 19.0 °F 21% 29.97 in 10.0 mi North 15.0 mph 18.4 mph N/A   Clear